FW5433 Weather Reports


Display with metric or nautical units.
time (UTC)temp
F
wind
direction
speed
MPH
gust
MPH
rain 1hr
in
rain 24hr
in
rain mn
in
humidity
%
barometer
mb
20260906031515 88 0.0 1.0 0.00 0.00 0.00 62 1012.3
20260906030515 88 0.0 1.0 0.00 0.00 0.00 61 1012.2
20260906025516 88 0.0 1.0 0.00 0.00 0.00 61 1012.1
20260906024515 88 0.0 0.0 0.00 0.00 0.00 60 1012.0
20260906023515 88 0.0 0.0 0.00 0.00 0.00 59 1011.9
20260906022515 88 0.0 0.0 0.00 0.00 0.00 59 1011.7
20260906021515 89 0.0 1.0 0.00 0.00 0.00 58 1011.6
20260906020535 88 0.0 1.0 0.00 0.00 0.00 58 1011.4
20260906015515 88 0.0 1.0 0.00 0.00 0.00 60 1011.3
20260906014515 89 0.0 0.0 0.00 0.00 0.00 60 1011.1
20260906013515 89 0.0 1.0 0.00 0.00 0.00 60 1011.1
20260906012515 90 0.0 1.0 0.00 0.00 0.00 60 1011.0
20260906011536 90 0.0 0.0 0.00 0.00 0.00 59 1010.9
20260906010515 91 0.0 0.0 0.00 0.00 0.00 57 1010.8
20260906005515 92 0.0 0.0 0.00 0.00 0.00 56 1010.7
20260906004515 92 0.0 0.0 0.00 0.00 0.00 54 1010.7
20260906003515 93 0.0 0.0 0.00 0.00 0.00 54 1010.7
20260906002515 94 0.0 1.0 0.00 0.00 0.00 52 1010.7
20260906001515 95 0.0 2.0 0.00 0.00 0.00 49 1010.7
20260906000515 97 0.0 1.0 0.00 0.00 0.00 47 1010.6
20260905235535 97 23 1.0 3.0 0.00 0.00 0.00 44 1010.6
20260905234515 97 0 1.0 3.0 0.00 0.00 0.00 44 1010.7
20260905233515 98 0 1.0 3.0 0.00 0.00 0.00 43 1010.8
20260905232515 98 0 1.0 2.0 0.00 0.00 0.00 45 1010.8
20260905231535 98 0 1.0 2.0 0.00 0.00 0.00 45 1010.7
20260905230515 99 23 1.0 4.0 0.00 0.00 0.00 45 1010.8
20260905225515 98 0.0 2.0 0.00 0.00 0.00 46 1010.7
20260905224535 98 0.0 2.0 0.00 0.00 0.00 46 1010.7
20260905223515 98 338 1.0 2.0 0.00 0.00 0.00 46 1010.7
20260905222515 98 293 1.0 2.0 0.00 0.00 0.00 46 1010.7
20260905221515 98 0 1.0 2.0 0.00 0.00 0.00 45 1010.8
20260905220515 98 23 2.0 5.0 0.00 0.00 0.00 44 1010.9
20260905215515 98 23 1.0 2.0 0.00 0.00 0.00 44 1010.9
20260905214516 98 0 1.0 4.0 0.00 0.00 0.00 41 1010.9
20260905213517 98 0 2.0 5.0 0.00 0.00 0.00 44 1010.7
20260905212517 98 293 1.0 2.0 0.00 0.00 0.00 46 1010.8
20260905211536 98 338 1.0 2.0 0.00 0.00 0.00 47 1010.8
20260905210517 98 338 1.0 4.0 0.00 0.00 0.00 45 1010.9
20260905205516 98 45 1.0 2.0 0.00 0.00 0.00 42 1010.9
20260905204516 99 23 1.0 6.0 0.00 0.00 0.00 40 1011.2
20260905203516 99 23 1.0 5.0 0.00 0.00 0.00 40 1011.1
20260905202517 99 0 2.0 6.0 0.00 0.00 0.00 39 1011.1
20260905201516 99 23 1.0 2.0 0.00 0.00 0.00 43 1011.2
20260905200537 100 0 1.0 4.0 0.00 0.00 0.00 40 1011.3
20260905195516 100 0 1.0 4.0 0.00 0.00 0.00 39 1011.4
20260905194516 99 0 1.0 5.0 0.00 0.00 0.00 41 1011.6
20260905193516 99 0.0 2.0 0.00 0.00 0.00 41 1011.8
20260905192516 100 0 1.0 4.0 0.00 0.00 0.00 40 1011.9
20260905191516 99 338 2.0 6.0 0.00 0.00 0.00 40 1011.9
20260905190537 99 338 2.0 6.0 0.00 0.00 0.00 42 1012.1
20260905185516 99 0 1.0 2.0 0.00 0.00 0.00 42 1012.1
20260905184517 99 0 1.0 4.0 0.00 0.00 0.00 41 1012.2
20260905183516 99 0 2.0 5.0 0.00 0.00 0.00 40 1012.3
20260905182516 98 0 1.0 3.0 0.00 0.00 0.00 45 1012.3
20260905181557 98 23 1.0 5.0 0.00 0.00 0.00 46 1012.5
20260905180516 98 315 1.0 4.0 0.00 0.00 0.00 46 1012.6
20260905175536 97 248 1.0 2.0 0.00 0.00 0.00 47 1012.6
20260905174516 97 338 1.0 2.0 0.00 0.00 0.00 50 1012.7
20260905173517 97 23 1.0 2.0 0.00 0.00 0.00 49 1013.0
20260905172516 96 203 1.0 5.0 0.00 0.00 0.00 50 1013.0
20260905171537 96 23 1.0 4.0 0.00 0.00 0.00 51 1013.2
20260905170516 96 0 1.0 2.0 0.00 0.00 0.00 51 1013.3
20260905165516 95 0 1.0 5.0 0.00 0.00 0.00 52 1013.4
20260905164516 95 23 1.0 5.0 0.00 0.00 0.00 52 1013.6
20260905163516 94 0 1.0 4.0 0.00 0.00 0.00 53 1013.6
20260905162516 94 0.0 2.0 0.00 0.00 0.00 55 1013.7
20260905161556 93 0 1.0 4.0 0.00 0.00 0.00 56 1013.7
20260905160516 93 338 1.0 2.0 0.00 0.00 0.00 56 1013.8
20260905155516 92 0 1.0 2.0 0.00 0.00 0.00 58 1013.8
20260905154516 92 0 1.0 4.0 0.00 0.00 0.00 58 1013.7
20260905153536 91 338 1.0 4.0 0.00 0.00 0.00 58 1013.8
20260905152516 91 0 1.0 4.0 0.00 0.00 0.00 60 1013.8
20260905151516 90 0 1.0 2.0 0.00 0.00 0.00 60 1013.8
20260905150516 89 0 1.0 3.0 0.00 0.00 0.00 62 1013.8
20260905145516 89 0.0 1.0 0.00 0.00 0.00 62 1013.8
20260905144516 88 0.0 1.0 0.00 0.00 0.00 63 1013.7
20260905143519 88 0.0 2.0 0.00 0.00 0.00 65 1013.7
20260905142516 87 0.0 1.0 0.00 0.00 0.00 66 1013.7
20260905141516 86 0.0 2.0 0.00 0.00 0.00 67 1013.7
20260905140536 86 0.0 2.0 0.00 0.00 0.00 69 1013.7
20260905135516 85 0.0 2.0 0.00 0.00 0.00 70 1013.6
20260905134516 84 0.0 1.0 0.00 0.00 0.00 72 1013.5
20260905133516 83 0.0 2.0 0.00 0.00 0.00 75 1013.5
20260905132516 82 0.0 1.0 0.00 0.00 0.00 78 1013.4
20260905131516 81 0.0 1.0 0.00 0.00 0.00 80 1013.3
20260905130516 81 0.0 0.0 0.00 0.00 0.00 82 1013.4
20260905125516 80 0.0 0.0 0.00 0.00 0.00 82 1013.3
20260905124515 80 0.0 0.0 0.00 0.00 0.00 82 1013.2
20260905123515 79 0.0 1.0 0.00 0.00 0.00 82 1013.1
20260905122515 79 0.0 0.0 0.00 0.00 0.00 83 1013.0
20260905121515 79 0.0 1.0 0.00 0.00 0.00 83 1013.0
20260905120516 79 0.0 1.0 0.00 0.00 0.00 84 1012.9
20260905115515 79 0.0 1.0 0.00 0.00 0.00 84 1012.8
20260905114515 79 0.0 1.0 0.00 0.00 0.00 84 1012.7
20260905113515 79 0.0 1.0 0.00 0.00 0.00 84 1012.7
20260905112515 79 0.0 1.0 0.00 0.00 0.00 84 1012.7
20260905111515 79 0.0 1.0 0.00 0.00 0.00 85 1012.7
20260905110515 79 0.0 1.0 0.00 0.00 0.00 85 1012.6
20260905105516 80 0.0 0.0 0.00 0.00 0.00 84 1012.5
20260905104515 80 0.0 1.0 0.00 0.00 0.00 83 1012.5
20260905103535 80 0.0 1.0 0.00 0.00 0.00 83 1012.6
20260905102515 80 0.0 0.0 0.00 0.00 0.00 82 1012.6
20260905101515 80 0.0 0.0 0.00 0.00 0.00 82 1012.7
20260905100515 80 0.0 0.0 0.00 0.00 0.00 82 1012.7
20260905095515 80 0.0 0.0 0.00 0.00 0.00 82 1012.7
20260905094515 80 0.0 0.0 0.00 0.00 0.00 81 1012.6
20260905093515 80 0.0 0.0 0.00 0.00 0.00 81 1012.5
20260905092515 81 0.0 0.0 0.00 0.00 0.00 80 1012.6
20260905091515 81 0.0 0.0 0.00 0.00 0.00 80 1012.5
20260905090515 81 0.0 0.0 0.00 0.00 0.00 80 1012.6
20260905085515 81 0.0 0.0 0.00 0.00 0.00 79 1012.6
20260905084515 81 0.0 0.0 0.00 0.00 0.00 79 1012.6
20260905083515 81 0.0 0.0 0.00 0.00 0.00 79 1012.7
20260905082515 82 0.0 0.0 0.00 0.00 0.00 78 1012.8
20260905081535 82 0.0 0.0 0.00 0.00 0.00 78 1012.9
20260905080515 82 0.0 0.0 0.00 0.00 0.00 77 1012.9
20260905075515 82 0.0 0.0 0.00 0.00 0.00 77 1012.9
20260905074515 83 0.0 0.0 0.00 0.00 0.00 76 1012.9
20260905073515 83 0.0 0.0 0.00 0.00 0.00 75 1012.9
20260905072515 83 0.0 0.0 0.00 0.00 0.00 75 1012.9
20260905071515 83 0.0 0.0 0.00 0.00 0.00 76 1012.9
20260905070515 82 0.0 0.0 0.00 0.00 0.00 76 1013.0
20260905065535 82 0.0 0.0 0.00 0.00 0.00 76 1013.0
20260905064515 82 0.0 1.0 0.00 0.00 0.00 76 1013.1
20260905063515 82 0.0 0.0 0.00 0.00 0.00 75 1013.1
20260905062515 83 0.0 1.0 0.00 0.00 0.00 75 1013.1
20260905061515 83 0.0 0.0 0.00 0.00 0.00 74 1013.1
20260905060514 83 0.0 0.0 0.00 0.00 0.00 73 1013.2
20260905055515 84 0.0 1.0 0.00 0.00 0.00 72 1013.2
20260905054517 84 0.0 0.0 0.00 0.00 0.00 71 1013.1
20260905053517 84 0.0 0.0 0.00 0.00 0.00 71 1013.2
20260905052517 85 0.0 1.0 0.00 0.00 0.00 70 1013.3
20260905051517 85 0.0 0.0 0.00 0.00 0.00 69 1013.3
20260905050516 85 0.0 0.0 0.00 0.00 0.00 69 1013.2
20260905045536 85 0.0 0.0 0.00 0.00 0.00 68 1013.1
20260905044516 85 0.0 0.0 0.00 0.00 0.00 67 1013.0
20260905043516 86 0.0 1.0 0.00 0.00 0.00 67 1013.0
20260905042516 86 0.0 1.0 0.00 0.00 0.00 67 1013.0
20260905041536 86 0.0 1.0 0.00 0.00 0.00 66 1013.1
20260905040516 86 0.0 1.0 0.00 0.00 0.00 66 1013.0
20260905035516 86 0.0 1.0 0.00 0.00 0.00 65 1013.0
20260905034516 86 0.0 1.0 0.00 0.00 0.00 66 1013.0
20260905033516 87 0.0 1.0 0.00 0.00 0.00 66 1013.1
20260905032516 87 0.0 1.0 0.00 0.00 0.00 66 1013.2